Abbotsford, British Columbia

3:24 AM PST on December 07, 2016 (GMT -0800)
Abbotsford

Weather History for CYXX - January, 2014

Change the Weather History Date:

Friday, January 10, 2014

  Actual Average Record
Temperature  
Mean Temperature 42 °F -  
Max Temperature 47 °F 40 °F 50 °F (2001)
Min Temperature 37 °F 31 °F 15 °F (2005)
Degree Days  
Heating Degree Days 23    
Moisture  
Dew Point -    
Average Humidity    
Maximum Humidity    
Minimum Humidity    
Precipitation  
Precipitation 0.47 in - - ()
Sea Level Pressure  
Sea Level Pressure 29.85 in    
Wind  
Wind Speed 12 mph ()    
Max Wind Speed 20 mph    
Max Gust Speed 28 mph    
Visibility 11.0 miles    
Events Rain    
Averages and records for this station are not official NWS values.
T = Trace of Precipitation, MM = Missing Value Source: Averaged Metar Reports

Daily Weather History Graph

Daily Weather History Graph

Search for Another Location

Airport or City:

Trip Planner

Search our weather history database for the weather conditions in past years. The results will help you decide how hot, cold, wet, or windy it might be!

Date:

Astronomy

Jan. 10, 2014 Rise Set
Actual Time 8:01 AM PST 4:33 PM PST
Civil Twilight 7:24 AM PST 5:09 PM PST
Nautical Twilight 6:44 AM PST 5:49 PM PST
Astronomical Twilight 6:06 AM PST 6:27 PM PST
Moon 12:47 PM PST (1/10) 3:05 AM PST (1/10)
Length of Visible Light 9h 45m
Length of Day
8h 32m
Waxing Gibbous, 76% of the Moon is Illuminated
Jan 10
Waxing Gibbous
Jan 15
Full
Jan 23
Last Quarter
Jan 30
New
Feb 6
First Quarter

Hourly Weather History & Observations

Time (PST) Temp. Windchill Dew Point Humidity Pressure Visibility Wind Dir Wind Speed Gust Speed Precip Events Conditions
12:00 AM 46.4 °F 39.8 °F - N/A% 29.76 in 15.0 mi South 16.1 mph - N/A   Overcast
1:00 AM 46.4 °F 39.0 °F - N/A% 29.78 in 15.0 mi South 19.6 mph 26.5 mph N/A   Mostly Cloudy
2:00 AM 46.4 °F 39.5 °F - N/A% 29.80 in 15.0 mi South 17.3 mph - N/A   Overcast
3:00 AM 46.4 °F 39.5 °F - N/A% 29.83 in 15.0 mi South 17.3 mph 24.2 mph N/A   Overcast
4:00 AM 46 °F - - % 29.85 in 15 mi Calm Calm - -   Scattered Clouds
4:00 AM 46.4 °F 39.5 °F - N/A% 29.85 in 15.0 mi South 17.3 mph 23.0 mph N/A   Mostly Cloudy
5:00 AM 46.4 °F 39.2 °F - N/A% 29.86 in 15.0 mi South 18.4 mph - N/A   Overcast
6:00 AM 46.4 °F 39.0 °F - N/A% 29.89 in 15.0 mi South 19.6 mph - N/A   Overcast
7:00 AM 46.4 °F 39.5 °F - N/A% 29.91 in 15.0 mi SSW 17.3 mph 23.0 mph N/A   Overcast
7:32 AM 46.4 °F 39.2 °F - N/A% 29.92 in 10.0 mi SSW 18.4 mph 27.6 mph N/A Rain Light Rain
8:00 AM 46.4 °F 39.2 °F - N/A% 29.95 in 10.0 mi SSW 18.4 mph - N/A Rain Light Rain
9:00 AM 44.6 °F 39.2 °F - N/A% 29.99 in 15.0 mi SW 10.4 mph - N/A Rain Light Rain
10:00 AM 44 °F - - % 30.02 in 15 mi Calm Calm - - Rain Light Rain
10:00 AM 44.6 °F 40.2 °F - N/A% 30.01 in 15.0 mi SW 8.1 mph - N/A   Overcast
11:00 AM 44.6 °F 41.4 °F - N/A% 30.03 in 15.0 mi SW 5.8 mph - N/A   Overcast
12:00 PM 46.4 °F 41.1 °F - N/A% 30.02 in 20.0 mi South 11.5 mph - N/A   Overcast
1:00 PM 48.2 °F - - N/A% 29.99 in 20.0 mi SSW 10.4 mph - N/A   Overcast
2:00 PM 48.2 °F - - N/A% 29.99 in 15.0 mi SSW 11.5 mph - N/A   Overcast
2:44 PM 46.4 °F 41.9 °F - N/A% 29.97 in 10.0 mi South 9.2 mph - N/A Rain Light Rain
3:00 PM 46.4 °F 41.9 °F - N/A% 29.96 in 10.0 mi South 9.2 mph - N/A Rain Light Rain
4:00 PM 44 °F - - % 29.94 in 10 mi Calm Calm - - Rain Light Rain
4:00 PM 44.6 °F 43.1 °F - N/A% 29.93 in 10.0 mi West 3.5 mph - N/A Rain Light Rain
5:00 PM 42.8 °F 39.3 °F - N/A% 29.89 in 10.0 mi NE 5.8 mph - N/A Rain Light Rain
6:00 PM 41.0 °F 34.3 °F - N/A% 29.83 in 6.0 mi NNE 11.5 mph - N/A Rain Light Rain
7:00 PM 41.0 °F 35.8 °F - N/A% 29.78 in 4.0 mi NNE 8.1 mph - N/A Rain Light Rain
7:31 PM 41.0 °F 36.4 °F - N/A% 29.76 in 3.0 mi NE 6.9 mph - N/A Rain Rain
8:00 PM 41.0 °F 35.2 °F - N/A% 29.73 in 3.0 mi NNE 9.2 mph - N/A Rain Rain
9:00 PM 41.0 °F 38.0 °F - N/A% 29.67 in 3.0 mi NE 4.6 mph - N/A Rain Rain
10:00 PM 40 °F - - % 29.59 in 3 mi Calm Calm - - Rain Light Rain
10:00 PM 41.0 °F 35.8 °F - N/A% 29.59 in 3.0 mi NNE 8.1 mph - N/A Rain Rain
11:00 PM 41.0 °F 38.0 °F - N/A% 29.51 in 3.0 mi ENE 4.6 mph - N/A Rain Heavy Rain
11:36 PM 41.0 °F 36.4 °F - N/A% 29.47 in 3.0 mi North 6.9 mph - N/A Rain Rain